GRL256 BGGH-BGSS

Flight info

Callsign GRL256
Flight time 0h 50m
Altitude 23000
Route ASCOX1A ASCOX DCT AGUMI DCT MA DCT LUXOV DCT MOPZU DCT 5NM
Aircraft DH8B/M-SDFGR/S

Departure

Time 2026-04-29 00:02
Airport Nuuk International Airport (BGGH)

Arrival

Time 2026-04-29 00:53
Airport Sisimiut Airport (BGSS)
Time Latitude Longitude Altitude Speed Heading
2026-04-28 23:52 64.18384 -51.67894 278 ft 0 kts 149°
2026-04-28 23:59 64.18378 -51.67902 282 ft 1 kts 264°
2026-04-28 23:59 64.18398 -51.67949 282 ft 5 kts 315°
2026-04-28 23:59 64.18430 -51.68022 282 ft 7 kts 318°
2026-04-28 23:59 64.18481 -51.68002 282 ft 8 kts 18°
2026-04-29 00:00 64.18546 -51.67956 282 ft 10 kts 17°
2026-04-29 00:00 64.18607 -51.67929 282 ft 9 kts 337°
2026-04-29 00:00 64.18639 -51.68076 282 ft 11 kts 289°
2026-04-29 00:00 64.18680 -51.68219 277 ft 9 kts 351°
2026-04-29 00:01 64.18707 -51.68210 278 ft 0 kts 18°
2026-04-29 00:02 64.19021 -51.67979 286 ft 90 kts 16°
2026-04-29 00:02 64.19735 -51.67442 540 ft 119 kts 18°
2026-04-29 00:02 64.20538 -51.66724 1060 ft 131 kts
2026-04-29 00:02 64.21460 -51.67005 1617 ft 141 kts 346°
2026-04-29 00:03 64.22414 -51.67713 2140 ft 151 kts 339°
2026-04-29 00:03 64.23373 -51.68653 2594 ft 152 kts 335°
2026-04-29 00:03 64.24341 -51.69699 3011 ft 156 kts 333°
2026-04-29 00:03 64.25307 -51.70814 3438 ft 158 kts 332°
2026-04-29 00:04 64.26288 -51.71975 3863 ft 160 kts 332°
2026-04-29 00:04 64.27280 -51.73143 4289 ft 162 kts 331°
2026-04-29 00:04 64.28276 -51.74347 4700 ft 163 kts 331°
2026-04-29 00:04 64.29287 -51.75562 5110 ft 165 kts 331°
2026-04-29 00:05 64.30290 -51.76760 5514 ft 166 kts 331°
2026-04-29 00:05 64.31364 -51.78059 5711 ft 184 kts 332°
2026-04-29 00:05 64.32523 -51.79443 6085 ft 190 kts 331°
2026-04-29 00:05 64.33688 -51.80859 6550 ft 190 kts 332°
2026-04-29 00:06 64.34868 -51.82236 7014 ft 191 kts 335°
2026-04-29 00:06 64.36079 -51.83424 7471 ft 192 kts 335°
2026-04-29 00:06 64.37306 -51.84643 7924 ft 194 kts 336°
2026-04-29 00:06 64.38538 -51.85883 8382 ft 195 kts 336°
2026-04-29 00:07 64.39768 -51.87098 8834 ft 196 kts 336°
2026-04-29 00:07 64.41019 -51.88357 9291 ft 197 kts 336°
2026-04-29 00:07 64.42278 -51.89609 9745 ft 198 kts 336°
2026-04-29 00:07 64.43542 -51.90880 10196 ft 199 kts 336°
2026-04-29 00:08 64.44812 -51.92147 10640 ft 201 kts 337°
2026-04-29 00:08 64.46075 -51.93406 11081 ft 202 kts 336°
2026-04-29 00:08 64.47363 -51.94698 11552 ft 202 kts 336°
2026-04-29 00:08 64.48645 -51.95986 12038 ft 201 kts 336°
2026-04-29 00:09 64.49906 -51.97255 12514 ft 200 kts 336°
2026-04-29 00:09 64.51179 -51.98538 13002 ft 199 kts 335°
2026-04-29 00:09 64.52428 -51.99796 13595 ft 199 kts 335°
2026-04-29 00:09 64.53690 -52.01070 14195 ft 198 kts 335°
2026-04-29 00:10 64.54932 -52.02324 14783 ft 197 kts 335°
2026-04-29 00:10 64.56194 -52.03599 15349 ft 197 kts 334°
2026-04-29 00:10 64.57433 -52.04847 15674 ft 197 kts 336°
2026-04-29 00:10 64.58727 -52.05930 15954 ft 198 kts 329°
2026-04-29 00:11 64.59959 -52.07349 16273 ft 199 kts 334°
2026-04-29 00:11 64.61218 -52.08676 16607 ft 200 kts 334°
2026-04-29 00:11 64.63751 -52.11267 17421 ft 201 kts 334°
2026-04-29 00:12 64.65039 -52.12577 17813 ft 202 kts 334°
2026-04-29 00:12 64.66311 -52.13870 18188 ft 203 kts 334°
2026-04-29 00:12 64.67611 -52.15196 18559 ft 204 kts 334°
2026-04-29 00:12 64.68898 -52.16511 18915 ft 205 kts 334°
2026-04-29 00:13 64.70200 -52.17842 19265 ft 206 kts 334°
2026-04-29 00:13 64.71511 -52.19185 19614 ft 207 kts 333°
2026-04-29 00:13 64.72829 -52.20536 19979 ft 208 kts 333°
2026-04-29 00:13 64.74136 -52.21876 20335 ft 208 kts 333°
2026-04-29 00:14 64.75459 -52.23236 20679 ft 209 kts 333°
2026-04-29 00:14 64.76790 -52.24605 21012 ft 210 kts 333°
2026-04-29 00:14 64.78126 -52.25980 21334 ft 211 kts 333°
2026-04-29 00:14 64.79462 -52.27357 21647 ft 212 kts 333°
2026-04-29 00:15 64.80825 -52.28764 21958 ft 213 kts 333°
2026-04-29 00:15 64.82157 -52.30141 22252 ft 214 kts 333°
2026-04-29 00:15 64.83517 -52.31547 22535 ft 215 kts 333°
2026-04-29 00:15 64.84883 -52.32963 22807 ft 216 kts 333°
2026-04-29 00:16 64.86253 -52.34383 23065 ft 217 kts 333°
2026-04-29 00:16 64.87661 -52.35847 23146 ft 225 kts 333°
2026-04-29 00:16 64.89110 -52.37356 23151 ft 234 kts 333°
2026-04-29 00:16 64.90613 -52.38920 23148 ft 242 kts 333°
2026-04-29 00:17 64.92181 -52.40552 23142 ft 249 kts 334°
2026-04-29 00:17 64.93761 -52.42199 23132 ft 254 kts 334°
2026-04-29 00:17 64.95388 -52.43895 23105 ft 255 kts 334°
2026-04-29 00:17 64.96999 -52.45578 23099 ft 255 kts 334°
2026-04-29 00:18 64.98628 -52.47281 23098 ft 255 kts 334°
2026-04-29 00:18 65.00224 -52.48955 23097 ft 254 kts 334°
2026-04-29 00:18 65.01847 -52.50658 23099 ft 254 kts 334°
2026-04-29 00:18 65.03455 -52.52348 23099 ft 254 kts 334°
2026-04-29 00:19 65.05054 -52.54031 23099 ft 254 kts 334°
2026-04-29 00:19 65.06688 -52.55534 23092 ft 253 kts 334°
2026-04-29 00:19 65.08285 -52.57348 23102 ft 252 kts 333°
2026-04-29 00:19 65.09859 -52.59045 23099 ft 253 kts 333°
2026-04-29 00:20 65.11478 -52.60781 23105 ft 253 kts 334°
2026-04-29 00:20 65.13077 -52.62487 23106 ft 253 kts 334°
2026-04-29 00:20 65.14663 -52.64172 23105 ft 253 kts 334°
2026-04-29 00:20 65.16281 -52.65894 23107 ft 254 kts 333°
2026-04-29 00:21 65.17890 -52.67604 23108 ft 254 kts 333°
2026-04-29 00:21 65.19491 -52.69307 23107 ft 254 kts 333°
2026-04-29 00:21 65.21086 -52.71008 23103 ft 255 kts 333°
2026-04-29 00:21 65.22703 -52.72733 23102 ft 255 kts 333°
2026-04-29 00:22 65.24321 -52.74462 23102 ft 255 kts 333°
2026-04-29 00:22 65.25935 -52.76189 23102 ft 255 kts 333°
2026-04-29 00:22 65.27537 -52.77904 23106 ft 256 kts 333°
2026-04-29 00:22 65.29172 -52.79656 23106 ft 256 kts 333°
2026-04-29 00:23 65.30792 -52.81397 23106 ft 257 kts 333°
2026-04-29 00:23 65.32399 -52.83124 23105 ft 257 kts 333°
2026-04-29 00:23 65.34039 -52.84890 23104 ft 257 kts 333°
2026-04-29 00:23 65.35664 -52.86642 23103 ft 257 kts 333°
2026-04-29 00:24 65.37279 -52.88386 23103 ft 258 kts 333°
2026-04-29 00:24 65.38930 -52.90171 23102 ft 258 kts 333°
2026-04-29 00:24 65.40546 -52.91902 23100 ft 258 kts 335°
2026-04-29 00:24 65.42313 -52.92834 23104 ft 261 kts 346°
2026-04-29 00:25 65.44087 -52.93695 23101 ft 261 kts 345°
2026-04-29 00:25 65.45842 -52.94528 23099 ft 261 kts 345°
2026-04-29 00:25 65.47623 -52.95379 23098 ft 261 kts 345°
2026-04-29 00:25 65.49387 -52.96225 23097 ft 261 kts 345°
2026-04-29 00:26 65.51157 -52.97076 23096 ft 261 kts 345°
2026-04-29 00:26 65.52933 -52.97931 23093 ft 261 kts 345°
2026-04-29 00:26 65.54719 -52.98793 23091 ft 261 kts 345°
2026-04-29 00:26 65.56494 -52.99651 23090 ft 261 kts 345°
2026-04-29 00:27 65.58251 -53.00501 23089 ft 261 kts 345°
2026-04-29 00:27 65.60046 -53.01370 23088 ft 261 kts 345°
2026-04-29 00:27 65.61800 -53.02220 23088 ft 261 kts 345°
2026-04-29 00:27 65.63572 -53.03081 23086 ft 261 kts 345°
2026-04-29 00:28 65.65344 -53.03943 23085 ft 261 kts 345°
2026-04-29 00:28 65.67122 -53.04810 23084 ft 261 kts 345°
2026-04-29 00:28 65.68918 -53.05685 23083 ft 261 kts 345°
2026-04-29 00:28 65.70676 -53.06544 23082 ft 261 kts 345°
2026-04-29 00:29 65.72449 -53.07411 23082 ft 261 kts 345°
2026-04-29 00:29 65.74232 -53.08284 23081 ft 261 kts 345°
2026-04-29 00:29 65.76003 -53.09153 23081 ft 261 kts 345°
2026-04-29 00:29 65.77779 -53.10026 23079 ft 261 kts 345°
2026-04-29 00:30 65.79554 -53.10899 23078 ft 261 kts 345°
2026-04-29 00:30 65.80750 -53.11488 23076 ft 261 kts 345°
2026-04-29 00:30 65.83106 -53.12650 23072 ft 261 kts 345°
2026-04-29 00:30 65.84881 -53.13526 23068 ft 261 kts 345°
2026-04-29 00:31 65.86639 -53.14396 23064 ft 261 kts 345°
2026-04-29 00:31 65.88413 -53.15276 23059 ft 261 kts 345°
2026-04-29 00:31 65.90190 -53.16160 23053 ft 261 kts 345°
2026-04-29 00:31 65.91969 -53.17046 23047 ft 261 kts 345°
2026-04-29 00:32 65.93741 -53.17931 23040 ft 261 kts 345°
2026-04-29 00:32 65.95515 -53.18818 23033 ft 261 kts 345°
2026-04-29 00:32 65.97288 -53.19705 23026 ft 261 kts 345°
2026-04-29 00:32 65.99042 -53.20584 23018 ft 261 kts 345°
2026-04-29 00:33 66.00814 -53.21474 23008 ft 261 kts 345°
2026-04-29 00:33 66.02588 -53.22366 23000 ft 261 kts 345°
2026-04-29 00:33 66.04360 -53.23259 23003 ft 261 kts 345°
2026-04-29 00:33 66.06142 -53.24156 22804 ft 263 kts 346°
2026-04-29 00:34 66.07898 -53.25045 22391 ft 259 kts 346°
2026-04-29 00:34 66.09639 -53.25924 21995 ft 254 kts 346°
2026-04-29 00:34 66.11349 -53.26790 21616 ft 248 kts 346°
2026-04-29 00:34 66.13012 -53.27631 21251 ft 242 kts 346°
2026-04-29 00:35 66.14644 -53.28459 20942 ft 239 kts 346°
2026-04-29 00:35 66.16254 -53.29278 20608 ft 237 kts 346°
2026-04-29 00:35 66.17857 -53.30094 20304 ft 234 kts 346°
2026-04-29 00:35 66.19453 -53.30908 19999 ft 235 kts 346°
2026-04-29 00:36 66.21038 -53.31719 19645 ft 239 kts 346°
2026-04-29 00:36 66.22675 -53.32556 19335 ft 240 kts 346°
2026-04-29 00:36 66.24303 -53.33388 19005 ft 242 kts 346°
2026-04-29 00:36 66.25946 -53.34229 18689 ft 242 kts 346°
2026-04-29 00:37 66.27594 -53.35074 18368 ft 244 kts 346°
2026-04-29 00:37 66.29248 -53.35923 18102 ft 242 kts 346°
2026-04-29 00:37 66.30897 -53.36770 17784 ft 243 kts 346°
2026-04-29 00:37 66.32532 -53.37611 17512 ft 242 kts 346°
2026-04-29 00:38 66.34161 -53.38451 17234 ft 242 kts 346°
2026-04-29 00:38 66.35809 -53.39302 16954 ft 241 kts 346°
2026-04-29 00:38 66.37431 -53.40140 16674 ft 241 kts 346°
2026-04-29 00:38 66.39077 -53.40992 16443 ft 238 kts 346°
2026-04-29 00:39 66.40692 -53.41828 16137 ft 239 kts 346°
2026-04-29 00:39 66.42310 -53.42668 15860 ft 239 kts 346°
2026-04-29 00:39 66.43911 -53.43499 15584 ft 238 kts 346°
2026-04-29 00:39 66.45521 -53.44338 15348 ft 236 kts 346°
2026-04-29 00:40 66.47134 -53.45179 15029 ft 238 kts 346°
2026-04-29 00:40 66.48748 -53.46027 14742 ft 237 kts 346°
2026-04-29 00:40 66.50361 -53.46874 14440 ft 237 kts 346°
2026-04-29 00:40 66.51822 -53.48517 14114 ft 234 kts 320°
2026-04-29 00:41 66.53043 -53.51172 13865 ft 231 kts 322°
2026-04-29 00:41 66.53858 -53.52860 13683 ft 231 kts 320°
2026-04-29 00:41 66.55498 -53.56265 13342 ft 230 kts 321°
2026-04-29 00:41 66.56725 -53.58809 13080 ft 230 kts 321°
2026-04-29 00:42 66.57941 -53.61334 12817 ft 229 kts 321°
2026-04-29 00:42 66.59167 -53.63879 12563 ft 229 kts 321°
2026-04-29 00:42 66.60394 -53.66434 12279 ft 229 kts 320°
2026-04-29 00:42 66.61615 -53.68978 12005 ft 230 kts 320°
2026-04-29 00:43 66.62838 -53.71529 11730 ft 230 kts 320°
2026-04-29 00:43 66.64080 -53.74123 11453 ft 230 kts 320°
2026-04-29 00:43 66.65297 -53.76668 11202 ft 229 kts 320°
2026-04-29 00:43 66.66515 -53.79219 10932 ft 230 kts 320°
2026-04-29 00:44 66.67754 -53.81818 10661 ft 230 kts 320°
2026-04-29 00:44 66.68963 -53.84355 10407 ft 230 kts 320°
2026-04-29 00:44 66.70201 -53.86959 10198 ft 228 kts 320°
2026-04-29 00:44 66.71410 -53.89504 9885 ft 231 kts 320°
2026-04-29 00:45 66.72639 -53.92094 9675 ft 229 kts 320°
2026-04-29 00:45 66.73854 -53.94661 9445 ft 228 kts 320°
2026-04-29 00:45 66.75065 -53.97220 9152 ft 231 kts 320°
2026-04-29 00:45 66.76228 -53.99677 8971 ft 199 kts 320°
2026-04-29 00:46 66.77221 -54.01785 8574 ft 181 kts 319°
2026-04-29 00:46 66.78236 -54.03564 8111 ft 174 kts 332°
2026-04-29 00:46 66.79350 -54.04439 7572 ft 169 kts 351°
2026-04-29 00:46 66.80501 -54.04392 7076 ft 163 kts
2026-04-29 00:47 66.81591 -54.04089 6609 ft 158 kts
2026-04-29 00:47 66.82657 -54.03788 6183 ft 153 kts
2026-04-29 00:47 66.83706 -54.03504 5756 ft 152 kts
2026-04-29 00:47 66.84742 -54.03236 5360 ft 150 kts
2026-04-29 00:48 66.85774 -54.02945 4947 ft 150 kts
2026-04-29 00:48 66.86801 -54.02599 4561 ft 148 kts
2026-04-29 00:48 66.87770 -54.01847 4210 ft 147 kts 23°
2026-04-29 00:48 66.88651 -54.00548 3875 ft 146 kts 32°
2026-04-29 00:49 66.89497 -53.99176 3566 ft 143 kts 32°
2026-04-29 00:49 66.90321 -53.97816 3268 ft 141 kts 33°
2026-04-29 00:49 66.91132 -53.96451 2951 ft 139 kts 34°
2026-04-29 00:49 66.91918 -53.95074 2669 ft 141 kts 35°
2026-04-29 00:50 66.92715 -53.93623 2442 ft 141 kts 37°
2026-04-29 00:50 66.93495 -53.92091 2219 ft 142 kts 39°
2026-04-29 00:50 66.94229 -53.90509 2023 ft 136 kts 43°
2026-04-29 00:50 66.94843 -53.88806 1904 ft 123 kts 52°
2026-04-29 00:51 66.95295 -53.87029 1723 ft 120 kts 63°
2026-04-29 00:51 66.95596 -53.85186 1613 ft 108 kts 74°
2026-04-29 00:51 66.95757 -53.83315 1464 ft 105 kts 83°
2026-04-29 00:51 66.95808 -53.81568 1220 ft 101 kts 91°
2026-04-29 00:52 66.95753 -53.79818 941 ft 99 kts 98°
2026-04-29 00:52 66.95643 -53.78124 689 ft 94 kts 103°
2026-04-29 00:52 66.95487 -53.76540 428 ft 90 kts 106°
2026-04-29 00:52 66.95332 -53.74969 223 ft 89 kts 103°
2026-04-29 00:53 66.95183 -53.73436 31 ft 88 kts 104°
2026-04-29 00:53 66.95083 -53.72416 23 ft 24 kts 104°
2026-04-29 00:53 66.95106 -53.72259 22 ft 9 kts 15°
2026-04-29 00:53 66.95151 -53.72290 23 ft 3 kts 314°
2026-04-29 00:54 66.95159 -53.72334 24 ft 3 kts 229°
2026-04-29 00:54 66.95147 -53.72308 23 ft 0 kts 108°
2026-04-29 00:54 66.95147 -53.72307 23 ft 0 kts 108°